This is the latest recevied weather packets stored in our database for station/object E23XBQ-1. If no packets are shown the sender has not sent any weather packets the latest 10 day(s).
| Time | Temp. | Humidity | Pressure | Rain* | Wind** | Luminosity | Snow |
|---|---|---|---|---|---|---|---|
| 1777790340 | 39.44° C | 31% | 970 hPa | - | - | 0 W/m² | - |
| 1777789715 | 38.89° C | 32% | 970 hPa | - | - | 0 W/m² | - |
| 1777789090 | 38.33° C | 34% | 970 hPa | - | - | 0 W/m² | - |
| 1777788466 | 38.33° C | 34% | 970 hPa | - | - | 0 W/m² | - |
| 1777787841 | 37.78° C | 34% | 971 hPa | - | - | 0 W/m² | - |
| 1777787214 | 36.67° C | 36% | 971 hPa | - | - | 0 W/m² | - |
| 1777786589 | 36.11° C | 39% | 971 hPa | - | - | 0 W/m² | - |
| 1777785995 | 34.44° C | 40% | 971 hPa | - | - | 0 W/m² | - |
| 1777785963 | 34.44° C | 40% | 971 hPa | - | - | 0 W/m² | - |
| 1777785636 | 35° C | 40% | 971 hPa | - | - | 0 W/m² | - |
| 1777785010 | 35° C | 41% | 972 hPa | - | - | 0 W/m² | - |
| 1777784778 | 34.44° C | 39% | 972 hPa | - | - | 0 W/m² | - |
| 1777784710 | 35° C | 39% | 972 hPa | - | - | 0 W/m² | - |
| 1777784084 | 35.56° C | 39% | 972 hPa | - | - | 0 W/m² | - |
| 1777783460 | 35.56° C | 38% | 972 hPa | - | - | 0 W/m² | - |
| 1777782835 | 35.56° C | 40% | 972 hPa | - | - | 0 W/m² | - |
| 1777782210 | 35.56° C | 39% | 972 hPa | - | - | 0 W/m² | - |
| 1777781586 | 34.44° C | 43% | 973 hPa | - | - | 0 W/m² | - |
| 1777780961 | 35.56° C | 40% | 973 hPa | - | - | 0 W/m² | - |
| 1777780337 | 35.56° C | 41% | 973 hPa | - | - | 0 W/m² | - |
| 1777779712 | 35° C | 39% | 973 hPa | - | - | 0 W/m² | - |
| 1777779088 | 35.56° C | 42% | 973 hPa | - | - | 0 W/m² | - |
| 1777778463 | 35° C | 42% | 973 hPa | - | - | 0 W/m² | - |
| 1777777838 | 34.44° C | 44% | 973 hPa | - | - | 0 W/m² | - |
| 1777777213 | 33.89° C | 47% | 973 hPa | - | - | 0 W/m² | - |
* Rain since midnight (hover to see other rain measurements)
** Current wind speed in m/s (hover to see current wind gust speed)